Change the Weather History Date:

Thursday, September 27, 2012

  Actual Average Record
Temperature  
Mean Temperature 71 °F -  
Max Temperature 79 °F - - ()
Min Temperature 64 °F - - ()
Cooling Degree Days 6    
Growing Degree Days 21 (Base 50)    
Moisture  
Dew Point 64 °F    
Average Humidity 82    
Maximum Humidity 100    
Minimum Humidity 58    
Precipitation  
Precipitation 0.04 in - - ()
Sea Level Pressure  
Sea Level Pressure 30.08 in    
Wind  
Wind Speed 3 mph (NNW)    
Max Wind Speed 9 mph    
Max Gust Speed -    
Visibility 10 miles    
Events Rain    
T = Trace of Precipitation, MM = Missing Value Source: NWS Daily Summary

Daily Weather History Graph

Daily Weather History Graph

Search for Another Location

Airport or City:

Trip Planner

Search our weather history database for the weather conditions in past years. The results will help you decide how hot, cold, wet, or windy it might be!

Date:

Astronomy

Sep. 27, 2012 Rise Set
Actual Time 7:09 AM CDT 7:05 PM CDT
Civil Twilight 6:43 AM CDT 7:31 PM CDT
Nautical Twilight 6:14 AM CDT 8:01 PM CDT
Astronomical Twilight 5:43 AM CDT 8:31 PM CDT
Moon 5:35 PM CDT (9/27) 4:42 AM CDT (9/27)
Length of Visible Light 12h 47m
Length of Day
11h 56m
Waxing Gibbous, 94% of the Moon is Illuminated
Sep 27
Waxing Gibbous
Sep 29
Full
Oct 8
Last Quarter
Oct 15
New
Oct 21
First Quarter

Hourly Weather History & Observations

Time (CDT) Temp. Dew Point Humidity Pressure Visibility Wind Dir Wind Speed Gust Speed Precip Events Conditions
12:53 AM 64.9 °F 64.0 °F 97% 30.04 in 10.0 mi NNE 4.6 mph - N/A   Clear
1:53 AM 64.9 °F 64.9 °F 100% 30.06 in 10.0 mi Calm Calm - N/A   Clear
2:53 AM 64.0 °F 64.0 °F 100% 30.06 in 9.0 mi Calm Calm - N/A   Clear
3:53 AM 64.9 °F 64.9 °F 100% 30.06 in 9.0 mi West 3.5 mph - N/A   Clear
4:53 AM 66.9 °F 63.0 °F 87% 30.11 in 10.0 mi WSW 6.9 mph - N/A   Clear
5:53 AM 66.0 °F 62.1 °F 87% 30.11 in 10.0 mi NW 9.2 mph - N/A   Partly Cloudy
6:53 AM 64.0 °F 63.0 °F 96% 30.06 in 10.0 mi NNE 8.1 mph - 0.02 in Rain Light Rain
7:53 AM 64.0 °F 63.0 °F 96% 30.08 in 10.0 mi ENE 4.6 mph - 0.01 in Rain Light Rain
8:53 AM 64.9 °F 63.0 °F 93% 30.10 in 10.0 mi NE 3.5 mph - 0.00 in   Scattered Clouds
9:53 AM 66.9 °F 64.0 °F 90% 30.13 in 10.0 mi Calm Calm - N/A   Partly Cloudy
10:53 AM 69.1 °F 64.0 °F 84% 30.14 in 10.0 mi Calm Calm - N/A   Overcast
11:53 AM 73.0 °F 63.0 °F 71% 30.12 in 10.0 mi Calm Calm - N/A   Scattered Clouds
12:53 PM 75.0 °F 62.1 °F 64% 30.12 in 10.0 mi Calm Calm - N/A   Scattered Clouds
1:53 PM 75.0 °F 63.0 °F 66% 30.09 in 10.0 mi SE 4.6 mph - N/A   Mostly Cloudy
2:53 PM 78.1 °F 62.1 °F 58% 30.07 in 10.0 mi Variable 3.5 mph - N/A   Mostly Cloudy
3:53 PM 78.1 °F 62.1 °F 58% 30.05 in 10.0 mi Calm Calm - N/A   Partly Cloudy
4:53 PM 77.0 °F 61.0 °F 58% 30.05 in 10.0 mi Calm Calm - N/A   Overcast
5:53 PM 75.9 °F 62.1 °F 62% 30.05 in 10.0 mi NNW 4.6 mph - N/A   Overcast
6:53 PM 73.0 °F 63.0 °F 71% 30.06 in 10.0 mi NNW 3.5 mph - N/A   Partly Cloudy
7:53 PM 72.0 °F 64.0 °F 76% 30.07 in 10.0 mi Calm Calm - N/A   Overcast
8:53 PM 70.0 °F 66.0 °F 87% 30.07 in 10.0 mi Calm Calm - 0.01 in Rain Light Rain
9:53 PM 70.0 °F 64.9 °F 84% 30.09 in 10.0 mi South 4.6 mph - N/A   Overcast
10:53 PM 68.0 °F 66.0 °F 93% 30.08 in 10.0 mi Calm Calm - 0.00 in   Overcast
11:53 PM 68.0 °F 66.0 °F 93% 30.07 in 10.0 mi Calm Calm - N/A   Partly Cloudy